Location: Palomar Mountain Lodge
(33.3110°N, 116.8495°W)
Time: 17:46:26
(UTC-07:00)

Cosmos 1655 Rocket - Pass Details

Date: 14 June 2018
Orbit: 971 x 1006 km, 82.9° (Epoch: 19 October)

Event Time Altitude Azimuth Distance (km) Brightness Sun altitude
Rises 21:38:49 0° 350° (N) 3,696 8.0 -17.7°
Reaches altitude 10° 21:41:21 10° 347° (NNW) 2,739 7.2 -18.0°
Maximum altitude 21:47:32 65° 268° (W) 1,069 4.3 -18.9°
Enters shadow 21:52:33 16° 189° (S) 2,301 5.6 -19.7°
